Tracking 30923 objects as of 1-Jul-2025
HD Live streaming from Space Station
objects crossing your sky now

FENGYUN 1C DEB

Track FENGYUN 1C DEB now!
10-day predictions


NORAD ID: 32106
Int'l Code: 1999-025CQY
Perigee: 738.9 km
Apogee: 901.4 km
Inclination: 101.5 °
Period: 101.1 minutes
Semi major axis: 7191 km
RCS: 0.0084 m2 (small)
Launch date: May 10, 1999
Source: People's Republic of China (PRC)
Launch site: Taiyaun Space Center, China (TSC)

Note: This is SATELLITE DEBRIS
Your satellite tracking list
Your tracking list is empty




NASA's NSSDC Master Catalog

Two Line Element Set (TLE):
1 32106U 99025CQY 25179.59584904  .00003963  00000-0  16532-2 0  9995
2 32106 101.4629 100.3511 0112998 122.4177 238.7981 14.23651942914584
Source of the keplerian elements: AFSPC